Wind_Speed
18 21 19 12 7 7 9 11 15 20 23 23 23 25 25 26 27 26 24 23 21 5 6 7 4 3 4 3 7 3 4 8 7 9 5 4 6 9 9 26 20 16 10 14 16 15 23 11 18 24 15 16 11 11
17 17 17 13 10 7 12 14 16 18 19 22 24 25 27 28 30 30 22 24 23 9 3 9 9 8 3 2 4 3 4 2 5 4 7 4 4 5 11 14 19 12 14 12 14 12 16 10 21 26 30 23 13 9
23 20 15 8 7 9 12 16 16 19 19 21 23 25 26 27 30 34 23 28 26 12 7 15 17 14 14 10 11 2 3 4 5 8 3 1 6 3 6 12 14 9 8 13 8 18 21 14 18 9 9 14 12 8
23 21 18 13 12 11 10 14 16 18 21 21 25 28 29 29 29 34 28 34 27 10 4 3 12 16 19 21 18 19 14 14 13 6 1 2 3 3 1 4 4 5 4 10 11 14 7 10 14 16 16 12 10 9
27 24 21 20 17 14 12 14 17 16 17 20 22 26 29 31 31 34 33 29 26 12 3 2 4 8 12 20 20 19 18 13 8 2 3 3 2 3 1 1 3 3 3 4 2 4 5 3 2 10 14 16 14 14
26 24 20 18 20 18 16 16 15 15 16 16 19 22 25 31 33 30 8 33 30 20 3 3 3 4 8 9 13 16 17 13 8 4 2 4 5 6 4 4 9 18 18 16 2 1 8 10 12 11 12 13 15 16
25 22 14 12 17 20 16 13 15 17 18 17 18 21 26 32 37 26 8 16 36 27 4 2 3 1 6 6 7 9 13 11 11 5 6 4 6 8 3 6 15 18 18 14 8 7 12 15 16 17 22 20 17 21
28 26 21 16 19 19 16 14 16 19 19 18 20 21 25 33 30 16 11 23 37 15 6 3 3 5 8 5 4 7 6 7 7 5 4 3 3 4 5 17 32 27 26 20 15 21 29 29 25 23 16 13 14 13
30 28 26 23 21 18 17 20 21 21 22 26 27 25 32 24 7 13 22 34 26 8 7 5 6 4 8 4 3 2 3 3 5 3 4 6 5 7 12 15 24 27 18 20 17 20 25 23 23 23 18 14 13 12
28 25 25 22 21 21 25 24 25 24 25 30 33 9 5 11 29 39 17 9 7 3 2 3 5 4 8 8 5 2 4 4 4 5 4 4 9 32 28 22 24 18 14 19 20 21 16 19 17 15 14 11 13 13
27 28 28 24 21 22 22 23 27 26 27 15 5 5 29 22 8 4 4 3 3 3 5 5 11 5 6 5 4 4 2 2 3 3 3 3 5 5 7 9 11 11 15 19 20 20 15 13 9 10 15 16 20 17
23 25 26 28 27 26 23 27 27 18 7 7 23 23 9 4 3 2 3 4 4 4 7 6 8 5 6 5 4 4 3 2 5 4 3 3 4 4 7 9 9 10 9 7 6 6 3 3 6 13 17 17 16 14
15 18 20 20 21 32 29 33 36 32 30 22 8 4 2 2 3 5 7 3 4 7 10 10 6 7 4 5 2 4 5 4 2 3 4 4 3 7 7 4 3 3 4 6 10 9 10 12 13 15 15 14 14 14
11 11 13 15 20 18 22 16 8 5 3 3 2 4 3 3 3 2 2 3 3 4 13 12 7 3 4 5 3 4 2 3 4 4 5 2 4 6 3 1 5 8 9 13 14 14 13 12 14 13 14 13 12 12
5 6 10 20 18 13 11 17 11 6 3 2 1 1 1 3 3 3 4 6 4 12 15 8 6 3 3 3 3 2 4 5 4 3 1 4 4 2 2 5 8 12 14 14 14 15 16 17 17 17 14 12 9 9
6 3 5 11 12 4 5 12 14 7 3 2 2 2 3 2 3 3 4 7 9 14 10 4 3 3 4 3 5 7 3 5 2 0 0 1 1 1 5 8 9 11 13 15 14 15 15 15 14 13 12 9 7 6
8 5 5 6 6 7 6 9 5 3 2 1 2 2 3 1 1 4 6 6 12 15 4 3 6 5 3 3 4 4 4 0 2 1 1 2 4 6 8 10 13 14 13 11 12 13 14 13 12 10 9 7 5 3
6 8 9 10 10 10 10 3 2 2 1 1 1 2 2 1 2 3 6 10 12 8 6 3 3 5 4 4 3 3 4 4 3 4 4 6 7 10 12 16 14 11 12 13 14 14 12 10 8 7 6 3 2 2
5 7 8 6 4 4 3 3 3 2 2 2 1 2 2 3 8 5 7 11 13 8 5 4 3 3 5 3 3 3 6 6 8 7 8 9 12 15 15 13 12 13 15 14 11 8 8 7 7 5 3 2 3 4
6 5 6 7 8 4 3 3 4 3 2 3 4 6 4 4 5 7 10 14 16 7 5 4 4 3 3 2 4 4 8 11 14 13 10 11 15 15 15 14 13 13 12 10 9 8 7 5 3 2 3 4 3 3
6 6 6 7 9 6 2 4 4 3 3 3 3 4 3 5 5 7 8 11 9 4 4 7 6 5 6 5 6 7 12 15 14 13 16 14 15 12 12 12 12 10 9 8 7 7 5 3 1 3 3 3 3 3
6 6 6 9 5 5 4 5 2 4 3 1 3 5 3 3 5 6 6 8 5 6 7 7 9 10 8 8 10 11 15 15 12 11 15 17 16 14 12 12 12 10 8 8 7 6 4 1 2 2 2 3 2 2
6 7 5 6 5 5 3 6 6 7 4 3 4 3 3 3 5 8 3 6 8 11 16 15 12 10 9 10 14 16 18 17 13 14 15 12 11 10 11 11 10 10 10 8 7 5 3 1 1 1 2 2 2 2
9 5 5 5 7 3 4 5 5 5 5 4 4 3 3 3 6 4 4 5 11 14 21 21 18 15 13 15 17 20 22 18 14 17 16 14 11 11 10 10 10 8 8 9 8 6 3 2 1 1 0 1 1 1
5 6 5 5 5 4 5 5 5 5 3 6 6 2 3 4 3 3 3 4 13 16 17 18 18 16 16 15 15 18 23 19 18 17 16 12 13 14 13 12 12 11 10 9 7 5 3 3 2 2 1 0 1 0
5 6 7 8 5 5 6 6 8 5 4 4 6 3 4 3 4 6 3 3 7 11 18 22 21 17 15 14 18 20 23 21 17 14 15 14 11 11 13 14 13 12 12 9 6 5 5 4 4 4 2 2 2 1
5 6 5 6 5 4 3 2 5 3 5 5 4 7 5 4 6 3 1 3 2 4 8 13 15 15 15 16 17 18 20 20 16 14 14 16 14 11 9 9 10 9 10 9 6 5 5 4 6 6 4 2 2 2
7 8 6 9 5 7 4 4 6 7 4 5 8 6 5 5 1 1 2 3 5 6 11 14 14 13 14 20 21 20 19 16 14 14 17 15 13 11 9 8 8 7 8 8 6 5 5 6 8 7 6 3 2 3
5 7 9 4 2 4 5 6 5 5 6 9 4 4 3 3 3 3 2 4 6 12 15 17 17 16 20 21 20 18 16 19 21 21 17 15 14 11 10 8 8 8 7 5 4 4 6 8 9 8 7 4 3 3
5 12 5 5 4 6 4 7 2 5 8 6 4 2 2 2 4 4 4 6 10 12 16 18 21 23 24 23 22 20 20 19 16 13 14 14 12 11 11 10 9 7 5 4 4 6 8 9 9 8 6 5 4 4
6 9 3 4 3 3 3 5 5 6 7 6 6 3 2 2 2 5 7 9 11 11 16 19 22 22 22 22 23 23 22 19 16 11 9 9 10 11 12 11 9 7 5 6 8 9 10 10 9 7 6 5 4 4
8 7 5 4 3 4 3 4 4 4 4 4 4 4 2 3 3 4 9 13 15 16 18 19 20 20 20 20 20 18 16 18 16 11 8 8 11 13 13 11 9 7 8 9 10 10 9 8 8 8 6 5 4 4
4 5 4 4 4 5 5 5 4 3 3 4 3 3 3 3 2 5 8 16 17 18 19 18 18 19 19 18 18 15 14 16 13 10 9 10 11 13 12 11 9 10 10 11 11 11 10 9 8 7 5 4 4 5
Wind_Direction
348 345 342 324 310 236 216 212 205 207 205 205 207 208 207 207 207 211 215 218 201 159 146 185 141 119 55 25 214 120 132 214 188 220 217 208 226 202 237 240 225 189 189 215 224 223 244 225 230 212 235 276 283 252
335 334 333 318 294 252 221 217 216 210 204 201 205 206 208 206 205 205 202 211 221 219 180 201 215 218 199 9 42 27 355 17 0 251 214 182 199 200 219 243 224 221 209 206 202 225 243 251 235 236 241 256 258 239
323 319 309 270 275 248 218 210 211 212 207 203 205 202 206 204 205 205 207 190 185 188 234 245 241 237 250 273 281 333 347 26 52 16 336 356 266 131 208 234 248 227 232 234 220 227 247 253 239 233 222 234 229 190
323 316 310 290 277 274 244 215 210 209 208 208 210 208 206 203 202 202 207 187 176 146 219 222 222 223 223 220 241 267 263 280 277 302 186 254 275 355 312 315 286 237 194 231 251 261 263 255 239 244 252 211 213 225
320 307 289 265 251 245 232 216 208 207 204 206 210 205 204 201 197 203 213 205 202 192 175 159 193 212 213 216 209 218 231 219 215 188 204 226 254 275 228 304 253 262 267 231 274 321 245 303 249 223 233 246 252 257
333 316 287 253 234 224 205 199 191 190 187 191 193 192 194 192 184 177 168 196 187 191 153 167 197 173 194 192 199 211 223 205 203 199 212 226 228 223 239 231 250 246 247 238 217 38 320 300 290 260 265 263 265 270
0 351 325 221 196 189 182 182 175 169 165 169 171 174 174 177 186 182 176 174 180 180 141 163 176 81 144 162 190 204 210 219 220 218 212 217 215 204 257 233 254 243 245 244 219 253 256 248 252 264 249 249 263 271
36 42 57 104 137 151 156 161 155 154 155 157 155 156 160 172 182 163 152 167 168 160 157 202 146 168 168 162 171 191 193 206 217 225 229 206 205 213 245 237 251 257 258 262 244 235 251 267 265 257 258 249 257 244
49 60 74 90 111 127 134 135 139 141 143 149 160 157 157 164 133 137 138 155 164 161 173 195 172 147 157 140 125 159 208 228 214 236 222 195 202 220 234 241 247 262 245 242 257 242 252 252 257 257 253 246 224 186
51 63 74 90 109 118 126 135 141 143 146 154 146 121 106 131 131 141 136 148 161 184 160 193 168 142 151 164 160 198 189 236 236 205 165 225 252 249 259 260 263 263 267 263 256 246 257 256 254 246 232 221 195 173
53 65 75 81 93 106 121 130 141 145 141 133 82 77 123 121 114 87 128 139 133 148 168 185 206 146 181 156 160 218 251 230 262 146 242 239 259 301 313 286 279 287 273 261 255 260 261 264 252 204 195 189 176 166
64 73 84 88 93 95 111 132 139 129 139 142 133 131 97 105 92 121 106 128 200 184 164 177 177 146 139 139 167 168 236 224 247 123 228 248 269 318 333 333 325 308 288 272 256 240 214 201 202 195 173 153 139 128
75 84 93 90 79 93 90 105 107 104 109 109 108 128 148 88 158 185 172 184 189 171 172 166 152 135 125 177 158 192 220 227 100 218 235 247 344 333 320 324 2 61 109 125 125 143 149 143 142 145 146 148 154 155
82 97 89 106 110 100 72 96 100 112 127 130 140 128 229 167 220 185 181 137 103 149 152 159 123 118 126 177 166 220 187 170 234 228 231 220 6 340 342 100 117 109 123 122 123 129 118 112 107 115 122 124 133 141
86 124 109 129 127 127 60 41 37 50 78 73 80 124 136 80 78 112 116 116 101 145 147 115 87 155 150 182 204 195 200 229 235 248 48 13 342 357 128 143 141 131 120 113 119 123 123 126 127 124 126 132 142 147
177 119 139 159 173 198 16 17 9 27 52 75 86 116 133 177 155 170 150 126 140 147 134 106 143 185 193 199 191 208 212 223 218 244 190 272 203 169 157 162 142 133 126 117 115 122 127 129 129 130 129 126 127 129
185 199 215 230 225 238 295 331 347 2 49 116 115 82 167 123 134 176 178 171 163 161 182 172 193 184 125 207 214 198 223 197 112 194 258 209 187 163 149 142 137 131 129 125 125 127 129 125 121 119 119 117 115 111
212 224 237 241 251 255 269 287 278 306 287 187 223 158 175 147 144 179 184 174 167 198 186 198 136 203 206 212 210 208 179 147 142 147 158 158 159 155 148 145 145 136 132 136 135 133 131 123 113 108 112 111 61 344
224 240 237 233 216 173 191 210 217 253 208 172 181 185 190 236 226 224 203 189 192 192 175 182 213 219 216 218 235 174 168 173 164 152 152 150 154 152 148 144 143 143 143 139 132 131 131 131 119 110 90 26 348 334
245 238 224 210 186 189 203 205 203 243 221 178 186 195 208 208 189 199 194 197 195 190 202 212 220 218 228 218 201 185 176 164 153 144 134 143 150 148 146 146 149 155 157 153 147 142 131 115 94 35 349 338 3 351
230 226 210 197 199 217 235 188 198 206 185 218 190 196 206 179 186 183 182 184 200 223 201 210 215 223 228 234 197 168 168 165 167 169 164 159 163 162 162 166 166 159 157 152 150 153 132 115 63 348 1 8 359 5
214 201 180 179 182 206 243 214 218 167 181 190 185 210 213 203 181 190 168 197 233 220 206 200 201 213 218 212 189 177 173 167 175 168 173 172 165 172 176 179 172 166 164 163 163 159 146 137 352 356 19 4 360 358
205 186 177 181 194 202 212 185 193 189 190 195 185 208 210 208 191 165 226 222 228 218 213 212 214 211 212 195 180 179 177 174 173 168 168 164 166 171 174 177 177 173 167 168 168 165 182 245 343 28 34 56 60 25
186 194 204 206 206 183 168 189 197 186 182 185 188 218 203 184 170 220 244 227 219 212 209 208 203 191 187 185 184 185 183 180 174 170 171 174 176 173 171 173 172 171 178 191 186 191 191 203 207 182 148 26 342 351
182 210 195 196 187 165 185 178 185 193 192 199 185 206 184 177 210 238 241 242 207 203 199 199 196 198 195 187 185 188 188 185 182 179 179 177 182 183 181 182 183 194 197 192 191 197 207 214 213 187 180 284 231 189
217 206 199 194 176 190 181 172 187 177 156 173 196 142 156 182 226 236 230 236 214 204 202 201 190 186 187 192 182 184 188 187 186 185 193 193 194 198 190 187 190 197 196 196 205 213 217 214 202 187 196 190 178 155
232 211 204 205 187 173 163 138 152 159 180 187 170 173 178 213 230 231 235 232 175 210 201 196 196 196 189 175 174 179 179 182 187 201 194 181 177 177 185 191 184 201 203 208 216 214 210 213 194 187 182 175 177 167
222 191 188 183 186 186 164 174 182 190 188 174 156 186 197 211 256 154 221 241 198 182 170 179 180 173 170 175 175 178 181 185 181 176 171 171 172 172 176 183 187 193 198 202 207 212 221 207 192 188 186 186 181 181
198 184 158 162 172 191 213 195 208 213 175 173 194 197 212 212 226 234 244 201 186 171 173 175 177 179 172 173 176 178 184 179 172 169 171 169 172 177 180 181 182 182 181 190 204 201 188 182 181 186 189 195 185 179
190 175 172 172 187 206 202 197 200 190 183 183 187 164 175 212 237 215 198 188 175 175 181 181 174 170 173 176 175 174 177 178 186 191 184 188 191 191 187 180 173 172 179 189 178 171 167 169 172 178 183 180 176 169
162 181 171 177 218 196 181 195 183 178 184 193 201 206 168 190 250 220 201 190 187 182 180 178 177 178 181 183 181 175 175 178 180 181 183 187 188 182 177 172 172 175 174 164 157 156 159 164 170 173 175 172 166 162
181 198 171 169 184 167 164 189 181 190 184 185 184 189 196 204 239 218 202 193 186 183 185 187 189 186 185 184 181 182 185 178 177 176 175 179 178 174 173 172 171 169 163 158 159 160 163 170 167 162 157 154 156 156
155 164 165 154 156 181 178 181 179 168 184 196 186 193 209 225 241 226 203 197 199 195 191 191 191 184 178 178 179 176 175 180 179 177 172 167 171 171 169 168 165 160 157 157 159 160 158 158 160 158 152 144 146 153
Height
1295 1288 1285 1287 1285 1284 1287 1293 1297 1301 1303 1306 1312 1322 1330 1339 1346 1353 1353 1359 1364 1365 1367 1369 1370 1372 1373 1377 1378 1386 1389 1386 1391 1390 1389 1397 1389 1383 1380 1360 1370 1388 1400 1396 1398 1399 1386 1361 1366 1373 1355 1359 1364 1364
1297 1294 1288 1284 1283 1283 1286 1291 1295 1298 1297 1302 1309 1317 1326 1334 1343 1350 1353 1356 1364 1365 1367 1369 1370 1372 1373 1380 1385 1384 1385 1385 1384 1380 1374 1381 1381 1376 1370 1366 1357 1370 1358 1366 1370 1358 1349 1349 1352 1356 1359 1356 1360 1362
1289 1288 1289 1290 1288 1287 1287 1288 1287 1293 1295 1297 1306 1312 1322 1328 1341 1347 1347 1353 1359 1362 1367 1370 1369 1372 1374 1376 1382 1386 1384 1383 1385 1387 1386 1382 1378 1369 1366 1358 1351 1355 1350 1353 1355 1341 1342 1346 1351 1354 1356 1356 1358 1358
1281 1276 1274 1272 1274 1274 1275 1281 1284 1289 1293 1297 1304 1310 1317 1325 1336 1344 1343 1348 1353 1360 1364 1364 1361 1363 1362 1368 1375 1382 1385 1384 1385 1385 1386 1387 1380 1373 1366 1368 1358 1351 1353 1348 1344 1346 1347 1347 1346 1351 1352 1354 1355 1356
1274 1269 1265 1265 1269 1269 1272 1275 1281 1285 1289 1294 1301 1308 1314 1322 1332 1339 1341 1344 1348 1359 1356 1361 1358 1360 1360 1362 1367 1373 1379 1382 1382 1383 1384 1382 1382 1380 1374 1372 1365 1358 1353 1353 1346 1346 1342 1343 1345 1349 1349 1352 1351 1352
1262 1255 1253 1255 1258 1264 1271 1274 1276 1282 1287 1291 1298 1304 1310 1317 1329 1331 1341 1342 1345 1354 1359 1358 1361 1359 1358 1361 1364 1371 1375 1378 1380 1379 1377 1377 1377 1377 1366 1356 1350 1349 1352 1347 1347 1348 1348 1345 1348 1349 1348 1349 1349 1348
1257 1244 1235 1239 1248 1257 1264 1269 1275 1281 1288 1293 1298 1304 1309 1318 1324 1328 1330 1330 1339 1352 1357 1360 1357 1358 1359 1362 1365 1368 1371 1373 1375 1374 1372 1371 1372 1373 1363 1351 1343 1344 1348 1346 1344 1346 1344 1341 1342 1344 1344 1343 1341 1343
1261 1250 1242 1242 1249 1258 1265 1270 1275 1281 1287 1292 1299 1305 1316 1320 1325 1330 1327 1331 1342 1351 1357 1357 1355 1358 1360 1362 1365 1366 1367 1368 1368 1368 1369 1363 1363 1361 1353 1343 1338 1337 1339 1342 1339 1340 1335 1335 1338 1339 1342 1338 1337 1339
1271 1265 1261 1259 1261 1265 1269 1274 1279 1284 1290 1295 1304 1310 1315 1321 1323 1324 1328 1336 1344 1351 1352 1352 1344 1344 1355 1358 1362 1367 1365 1367 1367 1364 1358 1358 1350 1344 1334 1333 1333 1332 1334 1337 1333 1333 1332 1331 1331 1332 1335 1335 1333 1334
1280 1277 1275 1274 1274 1275 1278 1280 1284 1288 1293 1300 1308 1311 1317 1319 1321 1328 1333 1340 1343 1345 1347 1340 1342 1345 1350 1355 1361 1364 1365 1365 1353 1352 1354 1349 1334 1326 1323 1326 1327 1327 1330 1331 1328 1327 1328 1326 1325 1327 1329 1331 1330 1331
1289 1285 1283 1283 1284 1285 1286 1289 1292 1296 1300 1304 1306 1311 1317 1319 1324 1327 1332 1333 1338 1340 1341 1342 1342 1345 1348 1346 1352 1358 1357 1360 1348 1342 1344 1332 1324 1323 1321 1323 1321 1319 1326 1327 1324 1324 1324 1323 1323 1324 1327 1330 1330 1329
1296 1294 1292 1292 1292 1293 1293 1295 1297 1299 1300 1302 1305 1314 1319 1323 1326 1328 1327 1332 1331 1327 1338 1340 1342 1341 1344 1347 1350 1359 1357 1358 1344 1346 1345 1332 1324 1326 1324 1321 1320 1322 1323 1322 1320 1320 1321 1322 1322 1324 1328 1330 1330 1332
1303 1301 1301 1300 1300 1301 1301 1301 1302 1303 1304 1308 1312 1315 1317 1322 1321 1319 1324 1323 1324 1328 1332 1335 1336 1338 1344 1348 1350 1354 1352 1345 1345 1346 1335 1323 1323 1324 1324 1324 1324 1324 1324 1322 1321 1322 1323 1323 1325 1327 1328 1330 1332 1334
1306 1305 1305 1304 1305 1304 1306 1307 1307 1308 1308 1309 1310 1314 1313 1317 1314 1312 1311 1314 1320 1322 1326 1329 1332 1336 1342 1345 1347 1345 1342 1345 1343 1338 1327 1322 1326 1327 1326 1326 1326 1325 1325 1324 1323 1324 1325 1326 1327 1329 1331 1333 1336 1337
1309 1308 1308 1307 1307 1308 1308 1308 1308 1307 1307 1309 1310 1310 1313 1316 1318 1319 1319 1320 1323 1325 1327 1329 1333 1337 1341 1342 1342 1341 1344 1336 1329 1320 1319 1327 1328 1327 1327 1328 1327 1327 1327 1327 1327 1327 1328 1329 1330 1333 1335 1337 1339 1340
1309 1310 1311 1311 1310 1309 1309 1309 1308 1308 1309 1310 1312 1314 1316 1316 1318 1319 1319 1321 1323 1325 1328 1331 1334 1336 1335 1335 1337 1333 1330 1324 1319 1321 1327 1327 1328 1328 1328 1328 1328 1329 1329 1330 1331 1332 1333 1334 1335 1336 1338 1339 1340 1341
1310 1310 1310 1311 1311 1311 1311 1312 1311 1310 1311 1311 1313 1314 1314 1315 1316 1317 1319 1320 1322 1326 1325 1327 1329 1326 1330 1329 1327 1323 1320 1317 1323 1326 1327 1326 1327 1328 1328 1329 1330 1331 1332 1333 1334 1335 1336 1337 1338 1340 1340 1341 1342 1342
1308 1308 1308 1309 1310 1311 1311 1312 1312 1311 1310 1311 1312 1313 1313 1314 1315 1317 1318 1320 1323 1324 1325 1323 1324 1324 1322 1320 1316 1316 1320 1322 1324 1325 1326 1326 1327 1328 1329 1330 1332 1333 1334 1335 1336 1338 1339 1340 1341 1342 1343 1343 1344 1344
1306 1306 1307 1307 1308 1310 1311 1312 1312 1311 1311 1311 1312 1313 1314 1314 1315 1315 1317 1318 1320 1322 1324 1324 1322 1317 1314 1314 1314 1317 1318 1320 1323 1325 1326 1327 1328 1329 1331 1332 1334 1335 1336 1338 1340 1341 1341 1342 1343 1344 1344 1344 1344 1343
1302 1303 1304 1305 1307 1308 1309 1309 1309 1309 1308 1309 1311 1311 1313 1313 1313 1313 1314 1316 1318 1321 1320 1317 1313 1311 1312 1313 1313 1315 1317 1319 1321 1325 1327 1328 1330 1331 1333 1334 1336 1337 1338 1339 1340 1341 1342 1343 1343 1343 1343 1342 1343 1342
1301 1301 1302 1304 1306 1307 1307 1306 1307 1307 1307 1308 1309 1310 1309 1310 1310 1311 1312 1314 1315 1311 1309 1309 1309 1309 1310 1310 1311 1313 1315 1318 1321 1323 1325 1327 1329 1331 1333 1334 1335 1337 1338 1340 1341 1341 1343 1343 1343 1342 1342 1341 1340 1340
1299 1300 1301 1302 1304 1305 1305 1303 1304 1304 1306 1306 1308 1307 1306 1306 1305 1307 1308 1310 1307 1304 1305 1305 1305 1307 1308 1309 1310 1311 1313 1318 1320 1321 1323 1325 1327 1329 1331 1332 1334 1336 1338 1339 1341 1342 1342 1342 1342 1341 1341 1340 1340 1339
1298 1299 1300 1300 1302 1302 1302 1300 1302 1301 1302 1304 1305 1303 1303 1302 1302 1304 1303 1300 1298 1298 1299 1301 1303 1304 1306 1307 1309 1311 1313 1316 1318 1320 1322 1325 1327 1329 1330 1331 1333 1335 1337 1338 1339 1340 1340 1341 1341 1341 1341 1341 1341 1340
1297 1298 1297 1296 1296 1296 1298 1297 1298 1297 1298 1298 1299 1298 1297 1298 1302 1300 1295 1290 1289 1291 1293 1295 1298 1300 1303 1305 1307 1308 1311 1314 1317 1319 1321 1323 1325 1327 1330 1331 1333 1335 1336 1336 1338 1339 1339 1340 1340 1341 1341 1341 1341 1340
1296 1293 1293 1291 1292 1293 1292 1291 1292 1292 1293 1293 1294 1296 1297 1299 1298 1294 1288 1281 1282 1283 1286 1289 1292 1295 1298 1300 1303 1306 1309 1312 1315 1316 1319 1321 1323 1325 1327 1329 1331 1333 1334 1336 1337 1338 1339 1339 1340 1340 1341 1341 1341 1340
1288 1284 1284 1281 1284 1284 1284 1285 1288 1289 1290 1291 1291 1293 1296 1297 1295 1286 1280 1277 1278 1279 1280 1283 1286 1291 1294 1296 1299 1302 1306 1309 1312 1315 1317 1319 1321 1323 1325 1327 1329 1331 1333 1334 1336 1337 1338 1339 1339 1340 1340 1340 1340 1340
1280 1277 1277 1278 1278 1279 1280 1281 1282 1283 1286 1284 1286 1291 1291 1290 1282 1276 1276 1275 1277 1277 1279 1282 1285 1288 1292 1294 1297 1300 1304 1307 1310 1313 1315 1317 1320 1323 1325 1327 1329 1330 1331 1333 1334 1336 1336 1337 1338 1339 1340 1340 1340 1341
1271 1271 1273 1274 1275 1275 1276 1277 1278 1278 1277 1278 1281 1284 1281 1276 1272 1275 1274 1274 1275 1276 1278 1280 1283 1287 1290 1293 1296 1300 1303 1306 1309 1312 1315 1318 1320 1322 1324 1325 1327 1329 1331 1332 1333 1334 1335 1336 1337 1339 1340 1340 1340 1341
1268 1267 1270 1272 1273 1273 1272 1272 1271 1271 1271 1273 1274 1273 1273 1273 1273 1272 1272 1273 1273 1275 1277 1280 1283 1286 1289 1293 1297 1301 1303 1306 1308 1311 1314 1317 1320 1322 1323 1325 1327 1328 1330 1331 1332 1333 1334 1335 1337 1338 1339 1340 1340 1341
1264 1265 1267 1268 1269 1267 1266 1267 1267 1267 1268 1269 1270 1271 1272 1271 1271 1271 1271 1272 1273 1275 1278 1280 1282 1286 1289 1292 1296 1300 1303 1306 1310 1313 1314 1316 1318 1320 1322 1324 1326 1328 1329 1330 1331 1332 1333 1335 1337 1338 1339 1340 1340 1341
1261 1263 1264 1264 1264 1264 1264 1265 1265 1266 1268 1268 1269 1271 1271 1271 1270 1270 1271 1272 1273 1275 1278 1280 1283 1286 1289 1292 1295 1299 1302 1306 1309 1312 1313 1315 1317 1319 1321 1323 1325 1327 1328 1329 1331 1332 1334 1335 1337 1338 1339 1340 1340 1341
1259 1259 1260 1261 1262 1264 1264 1265 1265 1266 1267 1268 1268 1269 1270 1270 1270 1269 1269 1270 1273 1275 1278 1281 1284 1286 1290 1293 1296 1299 1302 1305 1308 1310 1312 1314 1316 1318 1320 1323 1325 1326 1327 1329 1331 1333 1334 1336 1337 1338 1339 1340 1341 1341
1256 1257 1258 1258 1260 1261 1263 1264 1264 1265 1266 1266 1267 1267 1268 1268 1267 1267 1267 1268 1272 1274 1277 1281 1284 1287 1291 1294 1297 1300 1302 1305 1308 1310 1312 1314 1316 1318 1320 1322 1324 1326 1327 1329 1331 1333 1335 1337 1338 1339 1340 1341 1341 1342